[[{"header":{"parameterUnit":"m.s-1","parameterCategory":1,"la1":30.2991,"la2":30.254,"lo1":-89.0895,"lo2":-89.0444,"dy":0.0017,"dx":0.0017,"nx":28,"ny":28,"refTime":"2025-05-25T03:00:00:Z","depth":0,"parameterNumber":2,"parameterNumberName":"U-component_of_WINDS"},"data":[0,0,0,0,0,0,0,0,0,0,0,0,0,0,0,0,0,0,0,0,0,0,0,0,0,0,0,0,0,0,0,0,0,0,0,0,0,0,0,0,0,0,0,0,0,0,0,0,0,0,0,0,0,0,0,0,0,0,-0.2752,-0.2751,0,-0.2663,-0.2662,-0.2661,-0.2597,-0.2596,-0.2595,-0.2595,-0.2505,-0.2503,-0.2501,0,0,0,0,0,0,0,0,0,0,0,0,0,-0.2866,-0.2865,-0.2752,-0.2751,-0.2749,-0.2663,-0.2662,-0.2661,-0.2597,-0.2596,-0.2595,-0.2595,-0.2506,-0.2503,-0.2501,0,0,0,0,0,0,0,0,0,0,0,0,0,-0.2801,-0.2864,-0.2752,-0.2707,-0.2702,-0.2664,-0.2662,-0.2661,-0.2597,-0.2596,-0.2595,-0.2594,-0.2506,-0.2504,-0.2501,-0.25,0,0,-0.2492,-0.2491,0,0,0,0,0,0,0,0,-0.2805,-0.2797,-0.2715,-0.271,-0.2704,-0.264,-0.2669,-0.2607,-0.2597,-0.2637,-0.2595,-0.2594,-0.2551,-0.2544,-0.2529,-0.2496,-0.2492,-0.2492,-0.249,-0.2489,-0.2488,0,0,0,0,0,0,0,-0.281,-0.2801,-0.2717,-0.2714,-0.2707,-0.2692,-0.2682,-0.2657,-0.2599,-0.2633,-0.2628,-0.2619,-0.2548,-0.2532,-0.2527,-0.249,-0.2492,-0.2489,-0.2488,-0.2487,-0.2452,-0.2453,0,0,0,0,0,0,-0.2821,-0.2805,-0.2719,-0.2714,-0.2754,-0.269,-0.2679,-0.2662,-0.26,-0.2589,-0.262,-0.2616,-0.2537,-0.253,-0.2523,-0.2518,-0.2489,-0.2486,-0.2485,-0.2451,-0.2452,-0.2453,0,0,0,0,0,0,-0.2824,-0.2814,-0.2723,-0.2758,-0.2745,-0.2689,-0.267,-0.266,-0.2645,-0.2589,-0.2579,-0.2614,-0.2536,-0.2527,-0.2506,-0.2514,-0.2485,-0.2482,-0.245,-0.2452,-0.2453,-0.2509,0,0,0,0,0,0,-0.2827,-0.2815,-0.2814,-0.2758,-0.2744,-0.2707,-0.2671,-0.2659,-0.264,-0.2635,-0.2581,-0.2572,-0.2535,-0.2511,-0.2503,-0.251,-0.248,-0.2449,-0.2451,-0.2452,-0.2506,-0.2512,-0.2516,0,0,0,0,0,-0.2832,-0.2833,-0.2814,-0.2804,-0.2741,-0.2708,-0.2699,-0.2657,-0.2641,-0.2639,-0.2604,-0.2573,-0.2515,-0.2509,-0.25,-0.2506,-0.2449,-0.2451,-0.2452,-0.2503,-0.251,-0.2516,0,0,0,0,0,0,-0.2892,-0.2825,-0.2803,-0.2787,-0.2754,-0.2697,-0.2694,-0.2666,-0.2636,-0.2632,-0.2581,-0.257,-0.2554,-0.2528,-0.2523,-0.2502,-0.2478,-0.2478,-0.252,-0.2526,-0.2531,-0.2538,-0.2478,0,0,0,0,0,-0.2903,-0.2881,-0.2825,-0.2816,-0.28,-0.275,-0.2734,-0.2704,-0.2668,-0.2653,-0.2616,-0.2582,-0.2556,-0.2539,-0.2512,-0.2502,-0.249,-0.2502,-0.2507,-0.2512,-0.2512,-0.2505,-0.251,-0.2459,-0.2459,-0.2459,0,0,-0.2926,-0.2887,-0.2877,-0.2827,-0.2797,-0.2777,-0.2738,-0.2718,-0.2702,-0.265,-0.2628,-0.26,-0.2558,-0.2543,-0.2534,-0.252,-0.2524,-0.2514,-0.2518,-0.2516,-0.2508,-0.2513,-0.2517,-0.246,-0.246,-0.246,0,0,-0.2957,-0.2926,-0.2915,-0.2886,-0.2842,-0.2809,-0.2807,-0.2754,-0.2734,-0.2711,-0.2671,-0.2652,-0.2608,-0.258,-0.256,-0.2583,-0.2554,-0.2575,-0.2603,-0.2597,-0.2601,-0.2604,-0.2613,-0.2616,-0.2576,-0.2576,-0.2576,0,-0.2992,-0.2958,-0.2913,-0.2895,-0.2875,-0.2827,-0.2816,-0.279,-0.274,-0.2727,-0.2712,-0.2657,-0.2625,-0.2603,-0.2608,-0.2594,-0.259,-0.2581,-0.2604,-0.2607,-0.2609,-0.2617,-0.262,-0.2579,-0.2579,-0.2578,-0.2578,0,-0.3003,-0.2981,-0.2977,-0.293,-0.2909,-0.2895,-0.2848,-0.2832,-0.2805,-0.2774,-0.2751,-0.2712,-0.2676,-0.2669,-0.2642,-0.2643,-0.2636,-0.2614,-0.2588,-0.2618,-0.2624,-0.2626,-0.2583,-0.2582,-0.2581,-0.2581,0,0,-0.3069,-0.2997,-0.2997,-0.2975,-0.2923,-0.2905,-0.2889,-0.2854,-0.2842,-0.2809,-0.2795,-0.2759,-0.2738,-0.2716,-0.2685,-0.268,-0.2701,-0.2658,-0.2656,-0.2667,-0.27,-0.2717,-0.2721,-0.2681,-0.2682,-0.2682,-0.2704,0,-0.3093,-0.3061,-0.302,-0.3002,-0.2981,-0.2935,-0.2921,-0.2889,-0.2859,-0.2838,-0.2805,-0.2781,-0.2755,-0.2741,-0.2734,-0.27,-0.2706,-0.2697,-0.2668,-0.2667,-0.268,-0.2724,-0.2742,-0.2764,-0.2706,-0.2706,-0.2706,0,-0.3116,-0.3085,-0.3065,-0.3016,-0.3005,-0.2993,-0.2958,-0.2938,-0.29,-0.2879,-0.2855,-0.2822,-0.2804,-0.2781,-0.2755,-0.275,-0.2736,-0.2717,-0.2717,-0.2713,-0.2689,-0.2721,-0.277,-0.2774,-0.2709,-0.2709,-0.2709,0,-0.3167,-0.312,-0.3102,-0.3085,-0.3027,-0.3019,-0.2995,-0.2956,-0.2938,-0.2908,-0.2896,-0.2864,-0.2846,-0.2823,-0.2783,-0.277,-0.2761,-0.2735,-0.2744,-0.2745,-0.2744,-0.2744,-0.2792,-0.2735,-0.2735,-0.2735,-0.2735,0,-0.3197,-0.3187,-0.3124,-0.3113,-0.3101,-0.3054,-0.3043,-0.3014,-0.2981,-0.2964,-0.2923,-0.2908,-0.2856,-0.2835,-0.2804,-0.2787,-0.278,-0.2763,-0.2754,-0.2766,-0.2769,-0.2756,-0.2753,-0.2735,-0.2735,-0.2735,-0.2735,0,-0.3252,-0.3209,-0.3187,-0.3133,-0.312,-0.3113,-0.3067,-0.3055,-0.3024,-0.3003,-0.2996,-0.2947,-0.292,-0.2878,-0.2839,-0.2818,-0.2807,-0.2793,-0.282,-0.2815,-0.2826,-0.2826,-0.2867,-0.287,-0.2812,-0.2812,-0.2813,0,-0.3274,-0.3265,-0.321,-0.3196,-0.3173,-0.315,-0.3131,-0.3086,-0.3068,-0.3025,-0.3018,-0.2989,-0.2962,-0.2923,-0.2884,-0.2854,-0.2839,-0.2856,-0.2834,-0.2847,-0.284,-0.2841,-0.284,-0.2861,-0.2862,-0.2862,-0.2863,0,-0.3318,-0.3298,-0.3272,-0.3239,-0.3218,-0.319,-0.316,-0.3151,-0.3099,-0.3081,-0.3053,-0.3033,-0.2994,-0.2965,-0.293,-0.2906,-0.2876,-0.287,-0.287,-0.2882,-0.2898,-0.289,-0.2834,-0.2869,-0.2868,-0.2868,-0.2868,-0.2867,-0.3357,-0.3347,-0.3307,-0.328,-0.3253,-0.3226,-0.3212,-0.3179,-0.3155,-0.3119,-0.3094,-0.3068,-0.3031,-0.2981,-0.2958,-0.2938,-0.2925,-0.2925,-0.2925,-0.2926,-0.2931,-0.2902,-0.2931,-0.2931,-0.2931,-0.2931,-0.2931,0,-0.34,-0.3372,-0.3347,-0.3307,-0.3286,-0.3259,-0.3225,-0.3209,-0.3187,-0.3155,-0.313,-0.3099,-0.3071,-0.303,-0.3,-0.2991,-0.2977,-0.2985,-0.2985,-0.298,-0.2944,-0.2947,-0.2997,-0.2997,-0.2997,-0.2997,-0.2997,-0.2997,-0.3419,-0.3401,-0.3376,-0.3344,-0.3316,-0.329,-0.3273,-0.3249,-0.3223,-0.319,-0.3166,-0.314,-0.3104,-0.3071,-0.3045,-0.3033,-0.3024,-0.3036,-0.3021,-0.2989,-0.2982,-0.2977,-0.2979,-0.3035,-0.3035,-0.3058,-0.3059,-0.3059]},{"header":{"parameterUnit":"m.s-1","parameterCategory":1,"la1":30.2991,"la2":30.254,"lo1":-89.0895,"lo2":-89.0444,"dy":0.0017,"dx":0.0017,"nx":28,"ny":28,"refTime":"2025-05-25T03:00:00:Z","depth":0,"parameterNumber":3,"parameterNumberName":"V-component_of_WINDS"},"data":[0,0,0,0,0,0,0,0,0,0,0,0,0,0,0,0,0,0,0,0,0,0,0,0,0,0,0,0,0,0,0,0,0,0,0,0,0,0,0,0,0,0,0,0,0,0,0,0,0,0,0,0,0,0,0,0,0,0,3.4112,3.4111,0,3.4069,3.4069,3.4068,3.4077,3.4078,3.4079,3.408,3.403,3.4028,3.4026,0,0,0,0,0,0,0,0,0,0,0,0,0,3.4195,3.4193,3.4112,3.4111,3.4111,3.4069,3.4069,3.4068,3.4077,3.4078,3.4079,3.408,3.4031,3.4028,3.4026,0,0,0,0,0,0,0,0,0,0,0,0,0,3.4156,3.4193,3.4112,3.411,3.411,3.4069,3.4069,3.4068,3.4077,3.4078,3.4079,3.4081,3.4032,3.4029,3.4026,3.3982,0,0,3.4016,3.4015,0,0,0,0,0,0,0,0,3.4158,3.4153,3.4111,3.411,3.411,3.408,3.408,3.4039,3.4077,3.4089,3.408,3.4081,3.4045,3.4041,3.403,3.398,3.3978,3.4016,3.4014,3.4013,3.4012,0,0,0,0,0,0,0,3.4161,3.4155,3.4095,3.411,3.411,3.411,3.4106,3.4072,3.4061,3.4088,3.4089,3.4084,3.4045,3.4033,3.4029,3.3977,3.4016,3.4013,3.4011,3.401,3.3889,3.3887,0,0,0,0,0,0,3.4165,3.4157,3.4096,3.4093,3.4138,3.4108,3.4103,3.4088,3.4061,3.4058,3.4083,3.4085,3.4038,3.4033,3.4028,3.3975,3.4013,3.401,3.4008,3.389,3.3888,3.3887,0,0,0,0,0,0,3.4167,3.416,3.4098,3.4125,3.4118,3.4105,3.4088,3.4087,3.4075,3.4057,3.4055,3.4073,3.4039,3.4032,3.3994,3.3973,3.4008,3.4005,3.3891,3.3889,3.3887,3.3869,0,0,0,0,0,0,3.4169,3.416,3.4145,3.4125,3.4116,3.4066,3.4087,3.4085,3.407,3.4072,3.4048,3.4045,3.4039,3.3998,3.3991,3.397,3.4003,3.3893,3.3891,3.3888,3.3872,3.3867,3.3863,0,0,0,0,0,3.4172,3.414,3.4144,3.4137,3.4097,3.4065,3.406,3.4056,3.4069,3.4052,3.4041,3.4046,3.3977,3.3994,3.3986,3.3964,3.3894,3.3891,3.3888,3.3874,3.3868,3.3863,0,0,0,0,0,0,3.4155,3.4137,3.4142,3.4102,3.4086,3.4067,3.4046,3.405,3.4027,3.4029,3.4024,3.4018,3.3979,3.3968,3.3987,3.392,3.3937,3.3932,3.3929,3.3923,3.3919,3.3922,3.4,0,0,0,0,0,3.4147,3.4125,3.411,3.4076,3.4068,3.4059,3.4044,3.4043,3.4024,3.4017,3.4003,3.3983,3.3957,3.3939,3.3915,3.387,3.3865,3.3851,3.3846,3.3843,3.3838,3.3814,3.3807,3.3877,3.3877,3.3877,0,0,3.413,3.4117,3.4103,3.4073,3.406,3.4035,3.4052,3.4025,3.4006,3.4012,3.3976,3.3965,3.3942,3.3901,3.3882,3.389,3.3818,3.3839,3.3836,3.3834,3.381,3.3803,3.3798,3.3875,3.3875,3.3875,0,0,3.4085,3.4074,3.4046,3.4033,3.4013,3.4007,3.4,3.3981,3.3975,3.3939,3.3943,3.3919,3.3875,3.3858,3.3844,3.3795,3.3798,3.3787,3.3763,3.374,3.3734,3.3729,3.3711,3.3705,3.3783,3.3783,3.3783,0,3.4066,3.4031,3.403,3.4003,3.3989,3.3996,3.3965,3.3952,3.3924,3.3914,3.3924,3.3869,3.3854,3.3809,3.3797,3.3786,3.3776,3.3789,3.3735,3.373,3.3726,3.3708,3.3702,3.3781,3.3781,3.3782,3.3782,0,3.4007,3.3982,3.3961,3.3937,3.3921,3.3892,3.3886,3.3869,3.3869,3.3862,3.3825,3.3807,3.3779,3.3769,3.3767,3.3723,3.3729,3.3737,3.3754,3.3718,3.3702,3.3695,3.378,3.378,3.378,3.3781,0,0,3.3949,3.3927,3.3919,3.3908,3.3888,3.3868,3.3839,3.3814,3.3799,3.378,3.3755,3.3718,3.3726,3.371,3.3707,3.3686,3.3648,3.3697,3.3696,3.3688,3.3597,3.3591,3.3583,3.365,3.3649,3.3648,3.3599,0,3.3903,3.3855,3.3854,3.3809,3.3786,3.3792,3.3767,3.3751,3.3743,3.3721,3.3712,3.3686,3.3698,3.3689,3.3669,3.3657,3.363,3.3661,3.3625,3.3624,3.3631,3.3575,3.3568,3.3523,3.3593,3.3592,3.3591,0,3.3842,3.3824,3.3777,3.3761,3.3751,3.3729,3.3706,3.3685,3.3666,3.3662,3.3645,3.3646,3.3615,3.3634,3.3591,3.3612,3.3597,3.359,3.3588,3.3583,3.3605,3.3569,3.3508,3.3501,3.3581,3.3582,3.3582,0,3.3804,3.3768,3.3736,3.3726,3.3706,3.369,3.3681,3.3664,3.3649,3.3628,3.3618,3.3593,3.3579,3.3559,3.3552,3.3567,3.3509,3.3527,3.3503,3.3503,3.349,3.3491,3.3425,3.3482,3.3482,3.3482,3.3482,0,3.3752,3.3723,3.3719,3.3699,3.3666,3.3665,3.3632,3.3623,3.3608,3.3585,3.3588,3.3566,3.3559,3.3536,3.353,3.3495,3.3488,3.3483,3.3482,3.3482,3.3483,3.3472,3.3475,3.348,3.348,3.3481,3.3481,0,3.3704,3.37,3.3665,3.365,3.3646,3.3622,3.3608,3.3588,3.3582,3.3553,3.3546,3.3534,3.3507,3.3499,3.3465,3.3461,3.342,3.3421,3.3427,3.3426,3.3402,3.3405,3.3327,3.3317,3.3381,3.338,3.338,0,3.3671,3.365,3.3633,3.3619,3.361,3.3587,3.3572,3.3569,3.3554,3.3531,3.3514,3.3487,3.3466,3.3421,3.3409,3.3383,3.3383,3.3358,3.3379,3.3381,3.3382,3.3384,3.3381,3.3354,3.3353,3.3353,3.3352,0,3.3613,3.3612,3.3592,3.3571,3.3554,3.3537,3.3521,3.3508,3.3503,3.3485,3.3458,3.3442,3.3409,3.3382,3.3356,3.3344,3.3346,3.3346,3.3339,3.3339,3.3343,3.334,3.3415,3.3347,3.3348,3.3348,3.3349,3.3349,3.357,3.3552,3.3538,3.3515,3.3503,3.3488,3.3469,3.346,3.3439,3.3413,3.3412,3.3383,3.3364,3.333,3.3317,3.3293,3.33,3.329,3.3287,3.3284,3.3282,3.3348,3.3288,3.3288,3.3288,3.3288,3.3288,0,3.3512,3.3503,3.3483,3.3461,3.3443,3.345,3.3432,3.3416,3.3391,3.3375,3.3354,3.3323,3.3297,3.3284,3.3258,3.3241,3.3241,3.3234,3.3235,3.3232,3.3278,3.3286,3.3234,3.3234,3.3234,3.3234,3.3234,3.3234,3.3479,3.3448,3.3446,3.3408,3.3399,3.3372,3.3361,3.3347,3.3334,3.33,3.3279,3.3272,3.3256,3.3229,3.3205,3.3201,3.3191,3.3183,3.318,3.3223,3.3228,3.3234,3.3242,3.3181,3.3181,3.3136,3.3136,3.3135]}]]